COSMOS 2251 DEB, 35902

Orbit data source: Space-Track

COSMOS 2251 DEB, 35902 is space debris in LEO originally from a launch on Wed, 16 Jun 1993 UTC launched from the Plesetsk Missile And Space Complex (PKMTR). The debris from Iridium 33, an American commercial communications satellite, has been tracked extensively since its accidental collision with the defunct Russian satellite Cosmos 2251 in 2009. This event, occurring at high speed in low Earth orbit (LEO), generated thousands of pieces of space debris, significantly increasing the risk of further collisions. The Iridium 33 debris cloud has impacted space traffic management and orbital debris mitigation strategies, making it a subject of ongoing study in space situational awareness.

Loading next visibility...
Identifier
35902, 1993-036AUR
Orbit
LEO
Country
Flag of CISCIS
Related business
Manufacturer
Unknown
Mission
Spacecraft
Bus & Motor
Unknown
Mass
Unknown
Launch date (UTC)
1993-06-16 (33 years ago)
Launch vehicle
Unknown
Launch site
Plesetsk Missile And Space Complex (PKMTR)
Object type
Payload
Rocket body
Debris
Shape & HBR
Unknown shape, 0.1 m
Radar Cross Section
Small (<0.1 m²)

Expand to show TLE details & history
Last TLE update: 3 days ago

TLE from 3 days ago
0 COSMOS 2251 DEB
1 35902U 93036AUR 26117.31998269  .00002606  00000-0  10097-2 0  9997
2 35902  73.9862 348.3403 0102352  74.0819 287.1579 14.27648262630643
Epoch: 2026-04-27T07:40Z
TLE epoch observation values (Epoch: 2026-04-27T07:40:46.504Z)
Latitude
-0.00002°
Longitude
17.83519°
Altitude
781.214 km
Speed
7.474 km/s
True Right ascension
23h 13m 21s
True Declination
0° 00' 00"
Sunlit
Object was in daylight at epoch
Visualization orbit readout
Latitude
Unknown
Longitude
Unknown
Altitude
Unknown
Speed
Unknown
Apparent Right ascension
Unknown
Apparent Declination
Unknown
Sunlit
N/A
Visualization observer readout
Local Sidereal Time
17:27:09
Azimuth
Unknown
Elevation
Unknown
Doppler factor
Unknown
Orbital elements
Apogee altitude
870.681 km
Perigee altitude
723.798 km
Semi-major axis
7,175.377 km
Eccentricity
0.01024
Inclination
73.9862°
RAAN
348.3403°
Arg. of periapsis
74.0819°
True anomaly
286.03306°
Mean anomaly
287.1579°
Eccentric anomaly
286.5959°
Mean motion
3.57089 °/min
Orbital period
100.82 mins
BSTAR
0.0010097
Loading maneuver chart data...
Computing Atmospheric mass density...

Documentation

Showing up to 5 results
|